Weather History for Denver Centennial, CO

Change the Weather History Date:

Monday, June 3, 2013

  Actual Average Record
Temperature  
Mean Temperature 73 °F -  
Max Temperature 90 °F 74 °F 91 °F (2006)
Min Temperature 56 °F 46 °F 42 °F (1998)
Cooling Degree Days 8    
Month to date cooling degree days 8  
Growing Degree Days 22 (Base 50)    
Moisture  
Dew Point 24 °F    
Average Humidity 20    
Maximum Humidity 33    
Minimum Humidity 7    
Precipitation  
Precipitation 0.00 in - - ()
Month to date precipitation 0.00  
Year to date precipitation 4.76  
Sea Level Pressure  
Sea Level Pressure 29.64 in    
Wind  
Wind Speed 11 mph (WSW)    
Max Wind Speed 23 mph    
Max Gust Speed 32 mph    
Visibility 10 miles    
Events      
Averages and records for this station are not official NWS values.
T = Trace of Precipitation, MM = Missing Value Source: NWS Daily Summary

Daily Weather History Graph

Daily Weather History Graph

Search for Another Location

Airport:

Trip Planner

Search our weather history database for the weather conditions in past years. The results will help you decide how hot, cold, wet, or windy it might be!

Date:

Astronomy

Jun. 03, 2013 Rise Set
Actual Time 5:33 AM MDT 8:22 PM MDT
Civil Twilight 5:01 AM MDT 8:54 PM MDT
Nautical Twilight 4:20 AM MDT 9:34 PM MDT
Astronomical Twilight 3:35 AM MDT 10:20 PM MDT
Moon 2:31 AM MDT (6/3) 3:56 PM MDT (6/3)
Length of Visible Light 15h 53m
Length of Day
14h 49m
Waning Crescent, 21% of the Moon is Illuminated
Jun 3
Waning Crescent
Jun 8
New
Jun 16
First Quarter
Jun 23
Full
Jun 29
Last Quarter

Hourly Weather History & Observations

Time (MDT) Temp. Dew Point Humidity Pressure Visibility Wind Dir Wind Speed Gust Speed Precip Events Conditions
12:53 AM 61.0 °F 28.0 °F 29% 29.68 in 10.0 mi SE 8.1 mph - N/A   Clear
1:53 AM 59.0 °F 28.0 °F 31% 29.67 in 10.0 mi SSE 4.6 mph - N/A   Clear
2:53 AM 57.9 °F 28.0 °F 32% 29.66 in 10.0 mi SSW 8.1 mph - N/A   Clear
3:53 AM 63.0 °F 26.1 °F 25% 29.64 in 10.0 mi SSW 13.8 mph - N/A   Clear
4:53 AM 64.0 °F 25.0 °F 23% 29.62 in 10.0 mi South 12.7 mph - N/A   Partly Cloudy
5:53 AM 63.0 °F 26.1 °F 25% 29.64 in 10.0 mi SSW 11.5 mph - N/A   Partly Cloudy
6:53 AM 66.9 °F 28.0 °F 23% 29.63 in 10.0 mi SSW 15.0 mph - N/A   Scattered Clouds
7:53 AM 72.0 °F 28.9 °F 20% 29.62 in 10.0 mi SSW 15.0 mph - N/A   Scattered Clouds
8:53 AM 78.1 °F 28.9 °F 17% 29.62 in 10.0 mi SSW 17.3 mph 23.0 mph N/A   Partly Cloudy
9:53 AM 82.9 °F 26.1 °F 13% 29.61 in 10.0 mi SW 13.8 mph 23.0 mph N/A   Scattered Clouds
10:53 AM 84.0 °F 21.0 °F 10% 29.60 in 10.0 mi WSW 13.8 mph 23.0 mph N/A   Scattered Clouds
11:53 AM 86.0 °F 18.0 °F 8% 29.58 in 10.0 mi NW 15.0 mph - N/A   Scattered Clouds
12:15 PM 86.0 °F 19.4 °F 9% 29.84 in 10.0 mi NNW 9.2 mph - N/A   Scattered Clouds
12:53 PM 84.9 °F 19.0 °F 9% 29.60 in 10.0 mi WNW 9.2 mph - N/A   Scattered Clouds
1:53 PM 84.9 °F 18.0 °F 8% 29.58 in 10.0 mi West 9.2 mph - N/A   Scattered Clouds
2:53 PM 87.1 °F 17.1 °F 8% 29.58 in 10.0 mi Variable 5.8 mph - N/A   Scattered Clouds
3:53 PM 84.0 °F 17.1 °F 8% 29.57 in 10.0 mi Variable 5.8 mph 20.7 mph N/A   Mostly Cloudy
4:53 PM 86.0 °F 19.0 °F 8% 29.57 in 10.0 mi WNW 17.3 mph 24.2 mph N/A   Mostly Cloudy
5:53 PM 84.9 °F 21.9 °F 10% 29.58 in 10.0 mi West 13.8 mph 23.0 mph N/A   Scattered Clouds
6:53 PM 82.9 °F 26.1 °F 13% 29.60 in 10.0 mi NNW 17.3 mph 25.3 mph N/A   Mostly Cloudy
7:53 PM 75.9 °F 28.9 °F 18% 29.63 in 10.0 mi NW 11.5 mph - N/A   Mostly Cloudy
8:53 PM 75.0 °F 30.0 °F 19% 29.64 in 10.0 mi WNW 6.9 mph - N/A   Mostly Cloudy
9:53 PM 72.0 °F 30.9 °F 22% 29.67 in 10.0 mi WNW 8.1 mph - N/A   Scattered Clouds
10:53 PM 71.1 °F 28.9 °F 21% 29.73 in 10.0 mi NNE 13.8 mph 23.0 mph N/A   Mostly Cloudy
11:53 PM 66.9 °F 23.0 °F 19% 29.76 in 10.0 mi NNE 5.8 mph - N/A   Mostly Cloudy